Weather History for Waukegan, IL

Change the Weather History Date:

Saturday, October 5, 2013

  Actual Average Record
Temperature  
Mean Temperature 69 °F -  
Max Temperature 78 °F 63 °F 83 °F (2005)
Min Temperature 60 °F 45 °F 26 °F (2004)
Degree Days  
Heating Degree Days 0 11  
Month to date heating degree days 5 53  
Since 1 July heating degree days 183 219  
Cooling Degree Days 4 1  
Month to date cooling degree days 7 5  
Year to date cooling degree days 590 562  
Growing Degree Days 19 (Base 50)    
Moisture  
Dew Point 65 °F    
Average Humidity 88    
Maximum Humidity 100    
Minimum Humidity 76    
Precipitation  
Precipitation 0.88 in 0.09 in 0.88 in (2013)
Month to date precipitation 0.07 0.61  
Year to date precipitation 24.48 28.52  
Sea Level Pressure  
Sea Level Pressure 29.85 in    
Wind  
Wind Speed 5 mph (SSE)    
Max Wind Speed 31 mph    
Max Gust Speed 39 mph    
Visibility 3 miles    
Events Fog , Rain , Thunderstorm    
T = Trace of Precipitation, MM = Missing Value Source: NWS Daily Summary

Daily Weather History Graph

Daily Weather History Graph

Search for Another Location

Airport:

Trip Planner

Search our weather history database for the weather conditions in past years. The results will help you decide how hot, cold, wet, or windy it might be!

Date:

Astronomy

Oct. 05, 2013 Rise Set
Actual Time 6:53 AM CDT 6:25 PM CDT
Civil Twilight 6:25 AM CDT 6:53 PM CDT
Nautical Twilight 5:52 AM CDT 7:26 PM CDT
Astronomical Twilight 5:19 AM CDT 7:58 PM CDT
Moon 7:33 AM CDT (10/5) 6:42 PM CDT (10/5)
Length of Visible Light 12h 28m
Length of Day
11h 32m
New Moon, 1% of the Moon is Illuminated
Oct 5
New Moon
Oct 11
First Quarter
Oct 18
Full
Oct 26
Last Quarter
Nov 3
New

Hourly Weather History & Observations

Time (CDT) Temp. Dew Point Humidity Pressure Visibility Wind Dir Wind Speed Gust Speed Precip Events Conditions
12:14 AM 64.4 °F 64.4 °F 100% 29.96 in 2.5 mi Calm Calm - N/A   Overcast
12:49 AM 62.6 °F 62.6 °F 100% 29.95 in 1.2 mi NE 3.5 mph - N/A   Overcast
12:52 AM 63.0 °F 63.0 °F 100% 29.93 in 1.0 mi Calm Calm - N/A   Overcast
1:00 AM 62.6 °F 62.6 °F 100% 29.94 in 0.5 mi Calm Calm - N/A Fog Fog
1:11 AM 62.6 °F 62.6 °F 100% 29.93 in 0.2 mi Calm Calm - N/A Fog Fog
1:19 AM 62.6 °F 62.6 °F 100% 29.93 in 0.2 mi NE 3.5 mph - N/A Fog Fog
1:52 AM 63.0 °F 63.0 °F 100% 29.92 in 0.2 mi Calm Calm - N/A Fog Fog
2:24 AM 62.6 °F 62.6 °F 100% 29.93 in 0.2 mi Calm Calm - N/A Fog Fog
2:52 AM 62.1 °F 62.1 °F 100% 29.91 in 0.2 mi Calm Calm - N/A Fog Fog
3:18 AM 62.6 °F 62.6 °F 100% 29.92 in 0.2 mi Calm Calm - N/A Fog Fog
3:52 AM 63.0 °F 63.0 °F 100% 29.91 in 0.2 mi Calm Calm - N/A Fog Fog
4:32 AM 62.6 °F 62.6 °F 100% 29.92 in 0.2 mi Calm Calm - N/A Fog Fog
4:52 AM 61.0 °F 61.0 °F 100% 29.91 in 0.2 mi Calm Calm - N/A Fog Fog
5:00 AM 60.8 °F 60.8 °F 100% 29.92 in 0.2 mi Calm Calm - N/A Fog Fog
5:52 AM 61.0 °F 61.0 °F 100% 29.90 in 0.2 mi Calm Calm - N/A Fog Fog
6:38 AM 62.6 °F 62.6 °F 100% 29.91 in 0.5 mi Calm Calm - N/A Fog Fog
6:52 AM 61.0 °F 61.0 °F 100% 29.89 in 0.2 mi Calm Calm - N/A Fog Fog
7:09 AM 60.8 °F 60.8 °F 100% 29.90 in 0.8 mi Calm Calm - N/A   Overcast
7:10 AM 60.8 °F 60.8 °F 100% 29.90 in 0.8 mi Calm Calm - N/A   Overcast
7:49 AM 64.4 °F 64.4 °F 100% 29.91 in 0.8 mi Calm Calm - N/A   Partly Cloudy
7:52 AM 64.9 °F 64.9 °F 100% 29.89 in 0.8 mi Calm Calm - N/A   Scattered Clouds
7:59 AM 66.2 °F 66.2 °F 100% 29.91 in 1.0 mi South 3.5 mph - N/A   Scattered Clouds
8:10 AM 66.2 °F 66.2 °F 100% 29.91 in 1.0 mi South 4.6 mph - N/A   Mostly Cloudy
8:20 AM 66.2 °F 66.2 °F 100% 29.91 in 1.0 mi South 5.8 mph - 0.00 in Rain Light Rain
8:52 AM 68.0 °F 66.9 °F 96% 29.88 in 1.0 mi SSW 5.8 mph - 0.00 in   Overcast
8:59 AM 69.8 °F 68.0 °F 94% 29.91 in 2.0 mi SSW 3.5 mph - N/A   Overcast
9:52 AM 69.1 °F 68.0 °F 96% 29.89 in 4.0 mi SSW 6.9 mph - N/A   Overcast
10:19 AM 71.6 °F 69.8 °F 94% 29.91 in 5.0 mi SSW 6.9 mph - N/A   Mostly Cloudy
10:52 AM 73.9 °F 69.1 °F 85% 29.87 in 6.0 mi SW 6.9 mph - N/A   Haze
11:00 AM 75.2 °F 69.8 °F 83% 29.89 in 7.0 mi South 8.1 mph - N/A   Scattered Clouds
11:52 AM 77.0 °F 70.0 °F 79% 29.86 in 8.0 mi South 6.9 mph - N/A   Scattered Clouds
12:04 PM 78.8 °F 71.6 °F 78% 29.88 in 7.0 mi SE 5.8 mph - N/A   Mostly Cloudy
12:52 PM 75.9 °F 69.1 °F 79% 29.84 in 7.0 mi SE 6.9 mph - N/A   Mostly Cloudy
1:52 PM 77.0 °F 69.1 °F 76% 29.81 in 7.0 mi South 10.4 mph - N/A   Mostly Cloudy
2:42 PM 75.2 °F 69.8 °F 83% 29.81 in 6.0 mi East 4.6 mph - N/A   Haze
2:52 PM 75.0 °F 69.1 °F 82% 29.79 in 6.0 mi ESE 4.6 mph - N/A   Haze
3:28 PM 73.4 °F 68.0 °F 83% 29.81 in 5.0 mi ESE 6.9 mph - N/A   Haze
3:36 PM 71.6 °F 68.0 °F 88% 29.80 in 5.0 mi ESE 10.4 mph - N/A   Mostly Cloudy
3:52 PM 72.0 °F 68.0 °F 87% 29.77 in 4.0 mi SE 9.2 mph - N/A   Partly Cloudy
4:11 PM 69.8 °F 68.0 °F 94% 29.80 in 1.8 mi SE 9.2 mph - 0.00 in Rain Rain
4:52 PM 70.0 °F 68.0 °F 93% 29.80 in 2.0 mi South 11.5 mph 17.3 mph N/A Rain Light Rain
4:55 PM 69.8 °F 69.8 °F 100% 29.82 in 0.8 mi SSE 15.0 mph 21.9 mph N/A Rain , Thunderstorm Thunderstorms and Rain
4:58 PM 69.8 °F 69.8 °F 100% 29.82 in 0.2 mi SE 19.6 mph 25.3 mph N/A Fog , Rain , Thunderstorm Heavy Thunderstorms and Rain
5:07 PM 66.2 °F 66.2 °F 100% 29.83 in 0.2 mi SE 19.6 mph 39.1 mph N/A Fog , Rain , Thunderstorm Heavy Thunderstorms and Rain
5:14 PM 66.2 °F 64.4 °F 94% 29.82 in 0.5 mi SE 10.4 mph 33.4 mph N/A Fog , Rain , Thunderstorm Heavy Thunderstorms and Rain
5:18 PM 66.2 °F 64.4 °F 94% 29.81 in 1.0 mi SSE 12.7 mph 27.6 mph N/A Rain , Thunderstorm Heavy Thunderstorms and Rain
5:31 PM 66.2 °F 64.4 °F 94% 29.81 in 2.0 mi Variable 3.5 mph - N/A Rain , Thunderstorm Thunderstorms and Rain
5:39 PM 66.2 °F 64.4 °F 94% 29.81 in 5.0 mi WNW 3.5 mph - N/A Rain , Thunderstorm Light Rain
5:52 PM 64.9 °F 64.9 °F 100% 29.81 in 1.8 mi Variable 4.6 mph - N/A Rain , Thunderstorm Heavy Rain
6:00 PM 64.4 °F 64.4 °F 100% 29.82 in 0.8 mi Variable 3.5 mph - 0.02 in Rain Rain
6:05 PM 64.4 °F 62.6 °F 94% 29.83 in 1.0 mi SSW 6.9 mph - 0.03 in Rain , Thunderstorm Heavy Thunderstorms and Rain
6:14 PM 66.2 °F 64.4 °F 94% 29.82 in 2.5 mi SSE 5.8 mph - 0.04 in Rain , Thunderstorm Light Thunderstorms and Rain
6:19 PM 66.2 °F 64.4 °F 94% 29.82 in 4.0 mi East 4.6 mph - 0.05 in Rain Light Rain
6:32 PM 66.2 °F 64.4 °F 94% 29.81 in 10.0 mi SE 5.8 mph - 0.09 in   Overcast
6:52 PM 66.0 °F 64.0 °F 93% 29.78 in 9.0 mi East 5.8 mph - 0.17 in Rain Light Rain
7:52 PM 64.0 °F 64.0 °F 100% 29.78 in 7.0 mi Calm Calm - 0.19 in   Clear
8:52 PM 64.9 °F 64.9 °F 100% 29.78 in 8.0 mi South 3.5 mph - 0.17 in   Mostly Cloudy
9:39 PM 66.2 °F 64.4 °F 94% 29.80 in 6.0 mi SSE 6.9 mph - 0.11 in Rain Light Rain
9:42 PM 66.2 °F 64.4 °F 94% 29.79 in 2.5 mi SE 5.8 mph - 0.11 in Rain Heavy Rain
9:49 PM 66.2 °F 64.4 °F 94% 29.79 in 2.0 mi SSE 5.8 mph - 0.13 in Rain Light Rain
9:52 PM 66.0 °F 64.9 °F 96% 29.76 in 4.0 mi SSE 4.6 mph - 0.13 in Rain Light Rain
10:02 PM 66.2 °F 64.4 °F 94% 29.78 in 4.0 mi SSE 4.6 mph - 0.02 in Rain Light Rain
10:52 PM 66.0 °F 64.0 °F 93% 29.75 in 8.0 mi Variable 4.6 mph - 0.12 in   Mostly Cloudy
11:02 PM 66.2 °F 64.4 °F 94% 29.77 in 10.0 mi Variable 3.5 mph - 0.02 in   Mostly Cloudy
11:13 PM 64.4 °F 62.6 °F 94% 29.76 in 10.0 mi Variable 3.5 mph - 0.04 in   Scattered Clouds
11:52 PM 64.0 °F 63.0 °F 96% 29.73 in 10.0 mi SSW 8.1 mph - 0.10 in   Mostly Cloudy